This demonstration page uses our WeatherBlox Daily Observations layout. Learn more.

Left ArrowRight Arrow

34.74481, -87.66753

Hourly Observations for September 14, 2019

Temp ( °F °C ) Dew Point ( °F °C ) Humidity (%) Winds ( mph kmh ) Pressure ( in mb ) Visibility ( mi km ) Precip ( " mm )
12:53 am 00:53 Clear 78 25.6 70 21.1 76 76 Calm 30.13 1020 10 16 0.00 0.00
1:53 am 01:53 Clear 78 25.6 70 21.1 76 76 VRB 3 6 30.13 1020 10 16 0.00 0.00
2:53 am 02:53 Clear 74 23.3 70 21.1 88 88 ESE 3 6 30.14 1021 9 14 0.00 0.00
3:53 am 03:53 Clear 76 24.4 69 20.6 79 79 NNE 3 6 30.13 1020 10 16 0.00 0.00
4:53 am 04:53 Clear 73 22.8 69 20.6 87 87 E 3 6 30.14 1021 10 16 0.00 0.00
5:53 am 05:53 Clear 74 23.3 69 20.6 85 85 ENE 5 7 30.15 1021 10 16 0.00 0.00
6:53 am 06:53 Sunny 74 23.3 70 21.1 88 88 E 3 6 30.19 1022 10 16 0.00 0.00
7:53 am 07:53 Sunny 76 24.4 71 21.7 85 85 E 5 7 30.20 1023 10 16 0.00 0.00
8:53 am 08:53 Sunny 78 25.6 72 22.2 82 82 E 5 7 30.22 1023 10 16 0.00 0.00
9:53 am 09:53 Sunny 81 27.2 70 21.1 69 69 E 5 7 30.22 1023 10 16 0.00 0.00
10:53 am 10:53 Sunny 84 28.9 71 21.7 65 65 E 6 9 30.22 1023 10 16 0.00 0.00
11:53 am 11:53 Sunny 86 30 69 20.6 57 57 Calm 30.20 1023 10 16 0.00 0.00
12:53 pm 12:53 Sunny 90 32.2 67 19.4 47 47 Calm 30.18 1022 10 16 0.00 0.00
1:53 pm 13:53 Sunny 91 32.8 70 21.1 50 50 E 6 9 30.15 1021 10 16 0.00 0.00
2:53 pm 14:53 Sunny 92 33.3 70 21.1 49 49 VRB 5 7 30.14 1021 10 16 0.00 0.00
3:53 pm 15:53 Sunny 93 33.9 69 20.6 46 46 E 6 9 30.12 1020 10 16 0.00 0.00
4:53 pm 16:53 Sunny 92 33.3 68 20 46 46 ENE 7 11 30.11 1020 10 16 0.00 0.00
5:53 pm 17:53 Sunny 90 32.2 69 20.6 50 50 ESE 7 11 30.11 1020 10 16 0.00 0.00
6:53 pm 18:53 Sunny 85 29.4 70 21.1 61 61 E 3 6 30.11 1020 10 16 0.00 0.00
7:53 pm 19:53 Clear 81 27.2 70 21.1 69 69 Calm 30.13 1020 10 16 0.00 0.00
8:53 pm 20:53 Clear 78 25.6 71 21.7 79 79 E 3 6 30.13 1020 10 16 0.00 0.00
9:53 pm 21:53 Clear 76 24.4 70 21.1 82 82 Calm 30.14 1021 10 16 0.00 0.00
10:53 pm 22:53 Clear 76 24.4 70 21.1 82 82 Calm 30.14 1021 10 16 0.00 0.00
11:53 pm 23:53 Clear 75 23.9 70 21.1 84 84 NE 3 6 30.14 1021 10 16 0.00 0.00

Powered by AerisWeather